Regional Weather Roundup
Issued by NWS

Home | Current Version | Previous Version | Text Only | Print | Product List | Glossary On
Versions: 1 2 3 4 5 6 7 8 9 10 11 12 13 14 15 16 17 18 19 20 21 22 23 24 25 26 27 28 29 30 31 32 33 34 35 36 37 38 39 40 41 42 43 44 45 46 47 48 49 50
000
ASUS43 KBIS 131202
RWRND

NORTH DAKOTA REGIONAL WEATHER ROUNDUP
NATIONAL WEATHER SERVICE BISMARCK ND
600 AM CST WED DEC 13 2017

NOTE: "FAIR" INDICATES FEW OR NO CLOUDS BELOW 12,000 FEET WITH NO
SIGNIFICANT WEATHER AND/OR OBSTRUCTIONS TO VISIBILITY.


NDZ001>003-009>011-017-131300-
NORTHWEST NORTH DAKOTA

CITY           SKY/WX    TMP DP  RH WIND       PRES   REMARKS
WILLISTON      CLEAR     34  27  75 NW23G32   29.95R
6HR MIN TEMP:  34; 6HR MAX TEMP:  42;

MINOT          CLEAR     34  28  79 NW25G33   29.80R
MINOT AFB      CLEAR     33  28  82 NW22G29   29.79R
$$

NDZ018>021-031>035-040>046-131300-
SOUTHWEST NORTH DAKOTA

CITY           SKY/WX    TMP DP  RH WIND       PRES   REMARKS
BISMARCK       CLEAR     37  30  75 NW25G33   29.81R
6HR MIN TEMP:  37; 6HR MAX TEMP:  46; 6HR PCP: TRACE;

DICKINSON      CLEAR     32  26  78 NW22      29.89R WCI  19
GARRISON         N/A     33  28  81 NW26G33   29.80R WCI  20
6HR MIN TEMP:  33; 6HR MAX TEMP:  41;

HETTINGER ARPT CLEAR     33  24  69 NW21G28   29.93R
$$

NDZ004>008-012>016-024-026-027-054-131300-
NORTHEAST NORTH DAKOTA

CITY           SKY/WX    TMP DP  RH WIND       PRES   REMARKS
GRAND FORKS    FLURRIES  28  25  88 N31G45    29.64R WCI  12
GRND FRKS AFB  CLOUDY    30  27  86 N29G39    29.65R WCI  15
DEVILS LAKE    CLOUDY    34  30  85 NW22      29.68R
$$

NDZ022-023-025-028>030-036>039-047>053-131300-
SOUTHEAST NORTH DAKOTA

CITY           SKY/WX    TMP DP  RH WIND       PRES   REMARKS
FARGO          CLOUDY    31  28  89 N26G38    29.60R WCI  17
6HR MIN TEMP:  31; 6HR MAX TEMP:  38; 6HR PCP:  0.08;

JAMESTOWN      CLOUDY    35  32  88 NW23G33   29.67R
$$




USA.gov is the U.S. government's official web portal to all federal, state and local government web resources and services.